Date String (YYYY-MM-DD hh:mm:ss) UTC,Instrument flags,absolute air pressure of the measurement (hPa),sample flow rate (lpm),inlet stack bypass flow (lpm),air temperature of the measurement (°C),ambient temperature measured by the external sensor (°C),aerosol sample conditioner tube jacket temperature (°C),OPC LED temperature (°C),internal box temperature (°C),relative humidity of the measurement (%),span deviation,mass concentration of particles derived from Lorenz-Mie calculation of OPC scattering (μg/m³),mass concentration of particles derived from Lorenz-Mie calculation of OPC scattering (μg/m³),mass concentration of particles derived from Lorenz-Mie calculation of OPC scattering (μg/m³)
DateTimeUTC,F1_M11,P_M11,Q1_M11,Q2_M11,T1_M11,T2_M11,T3_M11,T4_M11,T5_M11,U1_M11,ZSPAN_M11,X0_M11,X2_M11,X1_M11
2023-11-21 14:00:00,SystemResetWarning,0841.1,5.00,000.00,018.7,017.4,000.0,027.2,020.0,17.0,0000.0,0004.12,0001.59,0001.32
2023-11-21 14:01:00,SystemResetWarning,0841.1,5.00,000.00,018.7,017.4,000.0,027.2,020.0,16.9,0000.0,0003.14,0001.57,0001.30
2023-11-21 14:02:00,SystemResetWarning,0841.1,5.01,000.00,018.6,017.4,000.0,027.2,020.0,16.8,0000.0,0002.74,0001.57,0001.30
2023-11-21 14:03:00,SystemResetWarning,0841.1,5.00,000.00,018.6,017.4,000.0,027.2,020.0,16.7,0000.0,0002.68,0001.51,0001.30
2023-11-21 14:04:00,SystemResetWarning,0841.1,5.00,000.00,018.6,017.4,000.0,027.2,020.0,16.6,0000.0,0003.16,0001.49,0001.29
2023-11-21 14:05:00,SystemResetWarning,0841.1,4.99,000.00,018.6,017.4,000.0,027.2,020.0,16.6,0000.0,0003.10,0001.49,0001.28
2023-11-21 14:06:00,SystemResetWarning,0841.1,4.99,000.00,018.6,017.4,000.0,027.2,020.0,16.8,0000.0,0003.12,0001.50,0001.29
2023-11-21 14:07:00,SystemResetWarning,0841.0,5.00,000.00,018.6,017.4,000.0,027.2,020.0,17.0,0000.0,0003.03,0001.49,0001.29
2023-11-21 14:08:00,SystemResetWarning,0841.1,5.00,000.00,018.6,017.4,000.0,027.2,020.0,16.9,0000.0,0003.11,0001.51,0001.29
2023-11-21 14:09:00,SystemResetWarning,0841.1,5.01,000.00,018.6,017.4,000.0,027.2,020.0,16.8,0000.0,0003.09,0001.50,0001.28
2023-11-21 14:10:00,SystemResetWarning,0841.1,5.00,000.00,018.6,017.4,000.0,027.2,020.0,16.8,0000.0,0002.91,0001.46,0001.28
2023-11-21 14:11:00,SystemResetWarning,0841.1,5.00,000.00,018.6,017.4,000.0,027.2,020.0,16.9,0000.0,0002.44,0001.43,0001.27
2023-11-21 14:12:00,SystemResetWarning,0841.1,5.00,000.00,018.6,017.4,000.0,027.2,020.0,16.7,0000.0,0002.40,0001.42,0001.27
2023-11-21 14:13:00,SystemResetWarning,0841.1,4.99,000.00,018.6,017.4,000.0,027.2,020.0,16.7,0000.0,0002.48,0001.42,0001.27
2023-11-21 14:14:00,SystemResetWarning,0841.1,4.99,000.00,018.6,017.4,000.0,027.2,020.0,16.7,0000.0,0002.63,0001.45,0001.27
2023-11-21 14:15:00,SystemResetWarning,0841.1,5.01,000.00,018.6,017.3,000.0,027.2,020.0,16.7,0000.0,0002.13,0001.45,0001.26
2023-11-21 14:16:00,SystemResetWarning,0841.0,5.01,000.00,018.6,017.3,000.0,027.2,020.0,16.8,0000.0,0002.05,0001.45,0001.27
2023-11-21 14:17:00,SystemResetWarning,0841.1,5.00,000.00,018.6,017.3,000.0,027.2,020.0,16.8,0000.0,0001.98,0001.42,0001.26
2023-11-21 14:18:00,SystemResetWarning,0841.1,4.99,000.00,018.6,017.3,000.0,027.2,020.0,16.9,0000.0,0001.98,0001.42,0001.26
2023-11-21 14:19:00,SystemResetWarning,0841.1,4.99,000.00,018.6,017.3,000.0,027.2,020.0,16.9,0000.0,0001.96,0001.44,0001.26
2023-11-21 14:20:00,SystemResetWarning,0841.1,5.00,000.00,018.6,017.3,000.0,027.2,020.0,16.8,0000.0,0002.08,0001.50,0001.28
2023-11-21 14:21:00,SystemResetWarning,0841.1,5.01,000.00,018.6,017.3,000.0,027.2,020.0,16.9,0000.0,0002.17,0001.53,0001.28
2023-11-21 14:22:00,SystemResetWarning,0841.1,5.01,000.00,018.6,017.3,000.0,027.2,020.0,16.9,0000.0,0002.17,0001.53,0001.28
2023-11-21 14:23:00,SystemResetWarning,0841.1,5.01,000.00,018.6,017.3,000.0,027.2,020.0,16.9,0000.0,0002.18,0001.53,0001.28
2023-11-21 14:24:00,SystemResetWarning,0841.1,4.99,000.00,018.6,017.3,000.0,027.2,020.0,16.9,0000.0,0002.12,0001.51,0001.28
2023-11-21 14:25:00,SystemResetWarning,0841.1,4.99,000.00,018.6,017.3,000.0,027.2,020.0,17.0,0000.0,0001.94,0001.48,0001.28
2023-11-21 14:26:00,SystemResetWarning,0841.0,5.00,000.00,018.6,017.4,000.0,027.2,020.0,16.9,0000.0,0001.93,0001.48,0001.29
2023-11-21 14:27:00,SystemResetWarning,0841.0,5.02,000.00,018.6,017.4,000.0,027.2,020.0,16.8,0000.0,0001.92,0001.48,0001.28
2023-11-21 14:28:00,SystemResetWarning,0841.1,5.00,000.00,018.6,017.4,000.0,027.2,020.0,16.7,0000.0,0001.94,0001.49,0001.28
2023-11-21 14:29:00,SystemResetWarning,0841.1,4.99,000.00,018.6,017.4,000.0,027.2,020.0,16.7,0000.0,0002.03,0001.51,0001.29
2023-11-21 14:30:00,SystemResetWarning,0841.1,5.00,000.00,018.6,017.4,000.0,027.2,020.0,16.5,0000.0,0002.07,0001.52,0001.30
2023-11-21 14:31:00,SystemResetWarning,0841.1,5.00,000.00,018.6,017.4,000.0,027.2,020.0,16.4,0000.0,0001.95,0001.46,0001.28
2023-11-21 14:32:00,SystemResetWarning,0841.1,5.01,000.00,018.6,017.4,000.0,027.2,020.0,16.4,0000.0,0001.80,0001.40,0001.27
2023-11-21 14:33:00,SystemResetWarning,0841.0,5.01,000.00,018.6,017.4,000.0,027.2,020.0,16.5,0000.0,0001.78,0001.39,0001.27
2023-11-21 14:34:00,SystemResetWarning,0841.1,5.00,000.00,018.6,017.4,000.0,027.2,020.0,16.6,0000.0,0001.71,0001.37,0001.27
2023-11-21 14:35:00,SystemResetWarning,0841.1,4.99,000.00,018.6,017.4,000.0,027.2,020.0,16.6,0000.0,0001.68,0001.35,0001.26
2023-11-21 14:36:00,SystemResetWarning,0841.1,5.00,000.00,018.6,017.4,000.0,027.2,020.0,16.7,0000.0,0001.69,0001.35,0001.26
2023-11-21 14:37:00,SystemResetWarning,0841.1,5.01,000.00,018.6,017.4,000.0,027.2,020.0,16.8,0000.0,0001.78,0001.35,0001.25
2023-11-21 14:38:00,SystemResetWarning,0841.0,5.01,000.00,018.6,017.4,000.0,027.2,020.0,16.8,0000.0,0001.76,0001.34,0001.24
2023-11-21 14:39:00,SystemResetWarning,0841.0,5.01,000.00,018.6,017.5,000.0,027.2,020.0,16.8,0000.0,0001.78,0001.34,0001.24
2023-11-21 14:40:00,SystemResetWarning,0840.9,5.00,000.00,018.6,017.5,000.0,027.2,020.0,16.8,0000.0,0001.90,0001.35,0001.24
2023-11-21 14:41:00,SystemResetWarning,0840.9,5.00,000.00,018.6,017.5,000.0,027.2,020.0,16.9,0000.0,0001.79,0001.30,0001.21
2023-11-21 14:42:00,SystemResetWarning,0840.9,5.00,000.00,018.6,017.5,000.0,027.2,020.0,16.9,0000.0,0001.81,0001.30,0001.20
2023-11-21 14:43:00,SystemResetWarning,0840.9,4.99,000.00,018.6,017.6,000.0,027.2,020.0,16.6,0000.0,0001.82,0001.30,0001.20
2023-11-21 14:44:00,SystemResetWarning,0841.0,5.00,000.00,018.6,017.6,000.0,027.2,020.0,16.7,0000.0,0001.93,0001.32,0001.19
2023-11-21 14:45:00,SystemResetWarning,0841.1,5.00,000.00,018.6,017.6,000.0,027.2,020.0,16.8,0000.0,0001.94,0001.32,0001.19
2023-11-21 14:46:00,SystemResetWarning,0841.1,5.01,000.00,018.6,017.6,000.0,027.2,020.0,16.8,0000.0,0001.95,0001.33,0001.19
2023-11-21 14:47:00,SystemResetWarning,0841.1,5.00,000.00,018.6,017.6,000.0,027.2,020.0,16.9,0000.0,0001.98,0001.35,0001.20
2023-11-21 14:48:00,SystemResetWarning,0841.1,5.00,000.00,018.6,017.6,000.0,027.2,020.0,16.9,0000.0,0001.91,0001.35,0001.21
2023-11-21 14:49:00,SystemResetWarning,0841.1,4.99,000.00,018.7,017.6,000.0,027.2,020.0,16.9,0000.0,0001.91,0001.35,0001.21
2023-11-21 14:50:00,SystemResetWarning,0841.1,4.99,000.00,018.7,017.6,000.0,027.2,020.0,17.3,0000.0,0001.89,0001.35,0001.21
2023-11-21 14:51:00,SystemResetWarning,0841.1,5.01,000.00,018.7,017.6,000.0,027.2,020.0,17.3,0000.0,0001.75,0001.33,0001.21
2023-11-21 14:52:00,SystemResetWarning,0841.1,5.00,000.00,018.7,017.6,000.0,027.2,020.0,17.1,0000.0,0001.85,0001.36,0001.22
2023-11-21 14:53:00,SystemResetWarning,0841.1,5.00,000.00,018.7,017.6,000.0,027.2,020.0,17.2,0000.0,0001.79,0001.34,0001.22
2023-11-21 14:54:00,SystemResetWarning,0841.1,5.00,000.00,018.7,017.6,000.0,027.2,020.0,17.0,0000.0,0001.79,0001.33,0001.22
2023-11-21 14:55:00,SystemResetWarning,0841.1,4.99,000.00,018.7,017.7,000.0,027.2,020.0,17.1,0000.0,0001.69,0001.33,0001.23
2023-11-21 14:56:00,SystemResetWarning,0841.1,5.00,000.00,018.7,017.7,000.0,027.2,020.0,17.5,0000.0,0001.69,0001.33,0001.24
2023-11-21 14:57:00,SystemResetWarning,0841.1,5.00,000.00,018.7,017.7,000.0,027.2,020.0,17.8,0000.0,0001.87,0001.36,0001.25
2023-11-21 14:58:00,SystemResetWarning,0841.1,5.00,000.00,018.7,017.7,000.0,027.2,020.0,17.8,0000.0,0001.96,0001.35,0001.25
2023-11-21 14:59:00,SystemResetWarning,0841.1,5.01,000.00,018.7,017.8,000.0,027.1,020.0,17.7,0000.0,0001.93,0001.34,0001.25
